Flag for New Zealand Weather past 2 weeks in Wellington, New Zealand

Now
50 °F

Passing clouds.


Feels Like: 43 °F
Forecast: 44 / 52 °F
Wind: 25 mph from South

Location: Wellington Airport

Current Time: Jul 4, 2015 at 12:30:27 AM

Latest Report: Jul 3, 2015 at 11:30 PM


Visibility: N/A

Pressure: 29.80 "Hg

Humidity: 94%

Dew point: 48 °F

Location of WellingtonLocation

Historic Weather in Wellington — Graph

°F

Wellington temperature yesterday

Maximum temperature yesterday: 55 °F (at 4:00 AM)
Minimum temperature yesterday: 50 °F (at 3:30 PM)
Average temperature yesterday: 53 °F

Past Weeks' High & Low Weather Summary

 TemperatureHumidityPressure
High61 °F (Jun 19, 10:30 AM)100% (Jun 18, 11:00 PM)30.51 "Hg (Jun 18, 11:00 PM)
Low41 °F (Jun 22, 6:30 PM)41% (Jun 27, 1:00 PM)29.56 "Hg (Jul 3, 5:30 PM)
Average50 °F77%29.96 "Hg
* Reported Jun 18 11:00 PM — Jul 3 11:30 PM, Wellington, Weather by CustomWeather, © 2015

Note: Actual official high and low records may vary slightly from our data, if they occured in-between our weather recording intervals... More about our weather records

Advertising

Wellington weather history for previous 24 hours

 ConditionsComfort  
Time TempWeatherWind HumidityBarometerVisibility
11:30 PM
Fri, Jul 3
50 °FPassing clouds.25 mph94%29.80 "HgN/A
11:00 PM52 °FMostly cloudy.25 mph88%29.77 "Hg6 mi
10:30 PM54 °FMostly cloudy.29 mph88%29.74 "Hg4 mi
10:00 PM54 °FPassing clouds.21 mph88%29.71 "Hg6 mi
9:30 PM52 °FPassing clouds.23 mph94%29.68 "HgN/A
9:00 PM52 °FPartly cloudy.7 mph94%29.68 "HgN/A
8:30 PM52 °FMostly cloudy.3 mph94%29.65 "HgN/A
8:00 PM52 °FRain showers. Partly cloudy.2 mph94%29.62 "Hg4 mi
7:30 PM52 °FPartly cloudy.7 mph94%29.62 "Hg5 mi
7:00 PM52 °FRain. Mostly cloudy.14 mph94%29.59 "Hg4 mi
6:30 PM52 °FRain showers. Mostly cloudy.18 mph94%29.59 "Hg2 mi
6:00 PM50 °FLight rain. Mostly cloudy.12 mph94%29.56 "Hg4 mi
5:30 PM50 °FRain. Passing clouds.2 mph94%29.56 "Hg2 mi
5:00 PM50 °FRain. Overcast.7 mph94%29.59 "HgN/A
4:30 PM50 °FRain. Passing clouds.9 mph94%29.59 "Hg6 mi
4:00 PM50 °FRain. Partly sunny.15 mph94%29.62 "HgN/A
3:30 PM50 °FRain. Partly sunny.16 mph94%29.62 "HgN/A
2:30 PM52 °FLight rain. Partly sunny.21 mph88%29.62 "HgN/A
2:00 PM52 °FSprinkles. Partly sunny.20 mph88%29.65 "HgN/A
1:30 PM52 °FDrizzle. Partly sunny.22 mph94%29.65 "HgN/A
1:00 PM54 °FLight rain. Partly sunny.30 mph88%29.65 "HgN/A
12:30 PM54 °FSprinkles. Mostly cloudy.29 mph88%29.65 "Hg4 mi
12:00 PM54 °FSprinkles. Broken clouds.26 mph82%29.65 "HgN/A
11:30 AM55 °FMostly cloudy.31 mph77%29.68 "HgN/A
11:00 AM55 °FMostly cloudy.26 mph77%29.71 "HgN/A
10:30 AM55 °FCloudy.30 mph77%29.71 "HgN/A
10:00 AM55 °FPartly sunny.30 mph77%29.71 "HgN/A
9:30 AM54 °FLight rain. Mostly cloudy.28 mph88%29.71 "HgN/A
9:00 AM54 °FSprinkles. Overcast.29 mph82%29.71 "HgN/A
8:30 AM54 °FOvercast.30 mph88%29.71 "Hg4 mi
8:00 AM54 °FOvercast.25 mph82%29.71 "HgN/A
7:30 AM54 °FOvercast.23 mph82%29.71 "HgN/A
7:00 AM54 °FOvercast.24 mph88%29.74 "HgN/A
6:30 AM54 °FMostly cloudy.24 mph82%29.74 "HgN/A
6:00 AM54 °FMostly cloudy.22 mph82%29.74 "HgN/A
5:30 AM55 °FPassing clouds.23 mph77%29.77 "HgN/A
5:00 AM55 °FSprinkles. Passing clouds.28 mph77%29.77 "HgN/A
4:30 AM55 °FPassing clouds.28 mph77%29.77 "HgN/A
4:00 AM55 °FPassing clouds.24 mph77%29.74 "HgN/A
3:30 AM54 °FPassing clouds.22 mph82%29.80 "HgN/A
3:00 AM54 °FPassing clouds.23 mph82%29.80 "HgN/A
2:30 AM54 °FPartly cloudy.22 mph77%29.83 "HgN/A
2:00 AM54 °FPassing clouds.23 mph77%29.83 "HgN/A
1:30 AM54 °FMostly cloudy.21 mph77%29.86 "HgN/A
1:00 AM54 °FSprinkles. Passing clouds.23 mph77%29.86 "HgN/A
12:30 AM52 °FSprinkles. Passing clouds.20 mph88%29.89 "HgN/A
12:00 AM52 °FLight rain. Partly cloudy.20 mph82%29.89 "HgN/A
Weather by CustomWeather, © 2015

See weather overviewHow to use our weather pages